Precipitable_Water
0.20 0.21 0.21 0.21 0.20 0.21 0.22 0.23 0.24 0.25 0.25 0.30 0.32 0.33 0.33 0.34 0.36 0.36 0.36 0.36 0.37 0.39 0.41 0.43 0.42 0.40 0.38 0.37 0.34 0.30 0.23 0.18 0.16 0.15 0.13 0.20 0.28 0.32 0.31 0.33 0.32 0.29 0.28 0.21 0.18 0.16 0.15 0.17 0.18 0.21 0.19 0.18 0.17 0.18 0.21 0.20 0.19 0.18 0.12 0.11 0.10 0.11 0.11 0.13 0.14 0.16 0.20 0.17 0.20 0.22 0.24 0.23 0.20 0.25 0.28 0.31 0.29 0.29 0.29 0.28 0.32 0.34 0.34 0.36 0.38 0.41 0.43 0.45
0.23 0.22 0.23 0.22 0.23 0.24 0.24 0.25 0.25 0.25 0.29 0.31 0.33 0.33 0.34 0.35 0.36 0.37 0.38 0.37 0.39 0.42 0.43 0.44 0.42 0.41 0.40 0.38 0.37 0.30 0.21 0.16 0.14 0.14 0.15 0.27 0.30 0.31 0.32 0.31 0.29 0.24 0.25 0.17 0.15 0.16 0.15 0.16 0.18 0.20 0.18 0.15 0.21 0.17 0.22 0.17 0.21 0.13 0.12 0.14 0.10 0.13 0.14 0.19 0.19 0.20 0.18 0.18 0.21 0.23 0.24 0.23 0.22 0.24 0.27 0.23 0.24 0.26 0.25 0.26 0.29 0.29 0.32 0.36 0.38 0.39 0.41 0.43
0.25 0.25 0.25 0.25 0.25 0.26 0.25 0.26 0.26 0.28 0.31 0.32 0.33 0.34 0.35 0.36 0.37 0.38 0.38 0.40 0.41 0.43 0.44 0.43 0.42 0.40 0.40 0.40 0.35 0.30 0.21 0.14 0.12 0.11 0.18 0.28 0.29 0.30 0.31 0.31 0.30 0.23 0.19 0.16 0.17 0.17 0.17 0.18 0.18 0.18 0.16 0.15 0.18 0.16 0.20 0.17 0.21 0.16 0.16 0.11 0.12 0.16 0.16 0.19 0.21 0.20 0.22 0.22 0.20 0.21 0.23 0.23 0.24 0.24 0.29 0.23 0.23 0.25 0.22 0.23 0.26 0.27 0.28 0.31 0.35 0.38 0.40 0.41
0.26 0.27 0.27 0.27 0.26 0.26 0.26 0.28 0.30 0.30 0.30 0.31 0.31 0.34 0.36 0.37 0.38 0.39 0.41 0.41 0.41 0.42 0.42 0.42 0.43 0.42 0.38 0.36 0.32 0.27 0.19 0.13 0.09 0.15 0.22 0.28 0.28 0.30 0.31 0.29 0.27 0.26 0.23 0.20 0.21 0.21 0.21 0.21 0.20 0.18 0.16 0.16 0.18 0.19 0.16 0.18 0.18 0.17 0.16 0.13 0.13 0.17 0.16 0.19 0.22 0.22 0.23 0.24 0.21 0.21 0.24 0.22 0.24 0.25 0.26 0.24 0.21 0.21 0.23 0.26 0.26 0.26 0.28 0.31 0.35 0.37 0.39 0.39
0.27 0.27 0.27 0.28 0.30 0.32 0.34 0.34 0.34 0.34 0.34 0.35 0.35 0.36 0.36 0.39 0.41 0.43 0.42 0.42 0.42 0.41 0.41 0.41 0.40 0.40 0.36 0.32 0.29 0.24 0.16 0.07 0.09 0.20 0.25 0.27 0.30 0.30 0.32 0.27 0.25 0.24 0.22 0.21 0.21 0.21 0.21 0.20 0.19 0.19 0.18 0.14 0.18 0.17 0.17 0.19 0.21 0.18 0.15 0.18 0.17 0.18 0.16 0.20 0.22 0.24 0.24 0.25 0.22 0.22 0.20 0.20 0.27 0.26 0.24 0.24 0.19 0.19 0.22 0.26 0.29 0.30 0.32 0.33 0.34 0.35 0.38 0.38
0.28 0.28 0.30 0.33 0.35 0.36 0.36 0.36 0.36 0.36 0.36 0.36 0.37 0.38 0.40 0.42 0.43 0.43 0.43 0.43 0.43 0.44 0.41 0.40 0.37 0.33 0.33 0.29 0.26 0.23 0.17 0.05 0.15 0.19 0.28 0.28 0.29 0.30 0.30 0.29 0.26 0.24 0.23 0.20 0.19 0.19 0.18 0.19 0.19 0.17 0.16 0.16 0.15 0.14 0.18 0.20 0.23 0.14 0.18 0.19 0.20 0.20 0.17 0.21 0.22 0.24 0.24 0.22 0.21 0.21 0.23 0.25 0.23 0.22 0.26 0.25 0.22 0.24 0.31 0.31 0.32 0.32 0.33 0.36 0.37 0.36 0.35 0.36
0.29 0.31 0.34 0.36 0.37 0.38 0.38 0.38 0.37 0.37 0.38 0.40 0.42 0.44 0.45 0.45 0.45 0.45 0.45 0.44 0.44 0.43 0.42 0.39 0.38 0.36 0.32 0.31 0.28 0.22 0.18 0.14 0.21 0.25 0.28 0.29 0.29 0.29 0.31 0.28 0.29 0.26 0.23 0.19 0.18 0.17 0.18 0.18 0.19 0.17 0.16 0.16 0.17 0.17 0.19 0.20 0.21 0.18 0.14 0.19 0.18 0.21 0.19 0.23 0.23 0.25 0.24 0.23 0.21 0.25 0.27 0.22 0.23 0.19 0.27 0.23 0.25 0.28 0.32 0.32 0.32 0.35 0.36 0.36 0.34 0.35 0.35 0.35
0.34 0.36 0.37 0.38 0.39 0.40 0.40 0.40 0.40 0.41 0.43 0.45 0.46 0.47 0.45 0.45 0.45 0.46 0.46 0.45 0.44 0.44 0.43 0.42 0.38 0.37 0.33 0.22 0.17 0.14 0.13 0.13 0.22 0.28 0.28 0.30 0.29 0.30 0.32 0.30 0.27 0.25 0.22 0.19 0.18 0.17 0.19 0.17 0.16 0.19 0.16 0.15 0.16 0.18 0.19 0.18 0.18 0.16 0.15 0.19 0.19 0.21 0.22 0.24 0.25 0.24 0.24 0.24 0.25 0.25 0.22 0.22 0.24 0.23 0.25 0.22 0.25 0.27 0.29 0.32 0.33 0.33 0.34 0.34 0.34 0.34 0.35 0.35
0.39 0.39 0.39 0.40 0.41 0.40 0.41 0.42 0.44 0.46 0.47 0.47 0.46 0.45 0.45 0.46 0.45 0.45 0.45 0.45 0.44 0.42 0.42 0.40 0.38 0.33 0.31 0.24 0.14 0.10 0.12 0.24 0.29 0.28 0.29 0.29 0.30 0.32 0.34 0.28 0.29 0.24 0.21 0.21 0.20 0.20 0.19 0.17 0.19 0.21 0.15 0.16 0.19 0.17 0.19 0.17 0.13 0.19 0.17 0.20 0.20 0.20 0.23 0.24 0.24 0.24 0.24 0.24 0.25 0.23 0.21 0.24 0.25 0.27 0.22 0.23 0.25 0.28 0.30 0.30 0.31 0.32 0.32 0.32 0.33 0.34 0.34 0.34
0.41 0.41 0.41 0.42 0.43 0.43 0.45 0.47 0.48 0.48 0.47 0.46 0.46 0.45 0.46 0.46 0.47 0.46 0.46 0.46 0.44 0.44 0.42 0.41 0.40 0.33 0.28 0.20 0.16 0.09 0.20 0.31 0.32 0.32 0.32 0.33 0.33 0.33 0.32 0.32 0.30 0.26 0.21 0.21 0.22 0.21 0.19 0.19 0.19 0.21 0.21 0.19 0.22 0.17 0.21 0.18 0.15 0.22 0.20 0.21 0.20 0.21 0.22 0.24 0.23 0.23 0.25 0.25 0.26 0.22 0.22 0.23 0.27 0.25 0.18 0.25 0.27 0.30 0.29 0.28 0.30 0.30 0.29 0.30 0.31 0.33 0.34 0.34
0.44 0.45 0.45 0.46 0.47 0.49 0.49 0.48 0.48 0.47 0.46 0.47 0.46 0.47 0.47 0.47 0.46 0.47 0.47 0.46 0.42 0.43 0.42 0.41 0.38 0.36 0.25 0.23 0.14 0.13 0.32 0.33 0.36 0.36 0.36 0.36 0.34 0.31 0.30 0.31 0.32 0.27 0.24 0.23 0.22 0.24 0.23 0.23 0.24 0.24 0.23 0.17 0.21 0.18 0.19 0.19 0.23 0.21 0.21 0.21 0.21 0.22 0.23 0.24 0.24 0.23 0.25 0.23 0.26 0.24 0.22 0.25 0.25 0.25 0.20 0.23 0.28 0.29 0.27 0.27 0.28 0.28 0.28 0.29 0.30 0.31 0.32 0.33
0.49 0.49 0.50 0.50 0.50 0.49 0.48 0.47 0.46 0.46 0.47 0.47 0.48 0.47 0.47 0.47 0.46 0.47 0.47 0.44 0.43 0.42 0.41 0.39 0.38 0.34 0.28 0.22 0.20 0.23 0.38 0.38 0.41 0.41 0.40 0.38 0.35 0.35 0.35 0.34 0.32 0.29 0.27 0.23 0.25 0.27 0.27 0.26 0.28 0.24 0.17 0.25 0.16 0.20 0.19 0.24 0.22 0.20 0.21 0.15 0.18 0.21 0.20 0.22 0.21 0.23 0.25 0.23 0.26 0.26 0.21 0.18 0.20 0.18 0.22 0.25 0.28 0.27 0.26 0.26 0.26 0.27 0.27 0.28 0.29 0.30 0.30 0.31
0.49 0.49 0.49 0.48 0.48 0.47 0.46 0.46 0.47 0.48 0.48 0.49 0.48 0.47 0.47 0.48 0.49 0.48 0.47 0.44 0.45 0.44 0.42 0.42 0.39 0.36 0.31 0.22 0.31 0.40 0.44 0.44 0.43 0.42 0.40 0.40 0.38 0.38 0.37 0.36 0.34 0.32 0.30 0.26 0.26 0.28 0.29 0.29 0.27 0.21 0.24 0.21 0.19 0.16 0.21 0.25 0.20 0.21 0.19 0.17 0.15 0.16 0.16 0.20 0.23 0.24 0.23 0.24 0.26 0.26 0.11 0.14 0.17 0.20 0.22 0.26 0.25 0.26 0.24 0.24 0.25 0.25 0.26 0.27 0.28 0.28 0.29 0.30
0.48 0.47 0.47 0.47 0.47 0.46 0.46 0.47 0.48 0.50 0.50 0.50 0.48 0.49 0.49 0.49 0.50 0.51 0.51 0.48 0.48 0.47 0.44 0.44 0.43 0.38 0.33 0.29 0.38 0.44 0.45 0.46 0.44 0.40 0.38 0.39 0.35 0.34 0.35 0.35 0.35 0.33 0.34 0.30 0.31 0.32 0.30 0.30 0.26 0.24 0.27 0.21 0.17 0.27 0.20 0.20 0.21 0.15 0.17 0.18 0.13 0.12 0.12 0.19 0.20 0.22 0.19 0.25 0.25 0.25 0.12 0.13 0.17 0.20 0.22 0.25 0.25 0.23 0.21 0.22 0.23 0.24 0.25 0.26 0.27 0.27 0.28 0.29
0.46 0.46 0.45 0.45 0.44 0.45 0.46 0.48 0.49 0.49 0.49 0.49 0.49 0.49 0.50 0.49 0.50 0.50 0.51 0.49 0.48 0.49 0.48 0.46 0.44 0.37 0.29 0.33 0.43 0.46 0.47 0.45 0.38 0.37 0.40 0.36 0.33 0.30 0.31 0.33 0.31 0.32 0.32 0.31 0.29 0.30 0.30 0.29 0.25 0.20 0.18 0.25 0.24 0.20 0.15 0.16 0.17 0.17 0.13 0.10 0.14 0.12 0.14 0.17 0.21 0.21 0.17 0.22 0.26 0.23 0.13 0.13 0.16 0.19 0.22 0.24 0.24 0.24 0.21 0.21 0.22 0.23 0.24 0.25 0.26 0.26 0.27 0.27
0.46 0.45 0.45 0.44 0.44 0.45 0.46 0.47 0.48 0.48 0.48 0.48 0.49 0.49 0.50 0.49 0.48 0.48 0.48 0.46 0.48 0.47 0.46 0.40 0.38 0.35 0.29 0.26 0.33 0.46 0.41 0.34 0.33 0.39 0.40 0.39 0.35 0.30 0.32 0.31 0.31 0.31 0.30 0.29 0.31 0.30 0.29 0.25 0.20 0.21 0.20 0.22 0.18 0.15 0.14 0.13 0.14 0.15 0.13 0.11 0.11 0.13 0.13 0.14 0.19 0.22 0.22 0.21 0.24 0.21 0.13 0.15 0.15 0.20 0.22 0.24 0.24 0.23 0.21 0.21 0.21 0.22 0.23 0.24 0.24 0.25 0.25 0.26
0.46 0.46 0.44 0.44 0.44 0.45 0.46 0.46 0.47 0.47 0.46 0.46 0.46 0.46 0.46 0.47 0.47 0.45 0.45 0.44 0.42 0.43 0.39 0.32 0.35 0.35 0.21 0.33 0.42 0.32 0.30 0.34 0.39 0.37 0.37 0.39 0.36 0.33 0.32 0.29 0.28 0.28 0.31 0.30 0.30 0.30 0.26 0.22 0.24 0.23 0.23 0.17 0.17 0.16 0.11 0.10 0.09 0.12 0.14 0.11 0.12 0.11 0.13 0.12 0.19 0.22 0.23 0.21 0.17 0.21 0.16 0.15 0.16 0.19 0.21 0.23 0.23 0.22 0.21 0.20 0.21 0.22 0.22 0.23 0.24 0.24 0.24 0.25
0.44 0.44 0.44 0.44 0.44 0.45 0.45 0.46 0.46 0.45 0.44 0.44 0.43 0.42 0.42 0.44 0.43 0.42 0.40 0.41 0.42 0.39 0.36 0.37 0.32 0.28 0.22 0.33 0.23 0.25 0.32 0.32 0.33 0.34 0.35 0.36 0.36 0.32 0.30 0.26 0.26 0.26 0.26 0.23 0.26 0.22 0.24 0.19 0.24 0.14 0.17 0.16 0.16 0.13 0.09 0.07 0.08 0.09 0.10 0.10 0.11 0.13 0.14 0.13 0.13 0.19 0.21 0.22 0.17 0.18 0.17 0.15 0.16 0.18 0.19 0.21 0.23 0.22 0.21 0.21 0.21 0.22 0.22 0.23 0.23 0.23 0.24 0.24
0.42 0.42 0.44 0.44 0.44 0.44 0.45 0.46 0.45 0.44 0.44 0.44 0.44 0.45 0.45 0.42 0.42 0.40 0.35 0.34 0.31 0.27 0.23 0.23 0.25 0.15 0.13 0.21 0.28 0.29 0.29 0.32 0.33 0.32 0.28 0.31 0.32 0.32 0.30 0.29 0.26 0.22 0.17 0.17 0.17 0.21 0.21 0.18 0.20 0.14 0.11 0.13 0.13 0.13 0.11 0.11 0.13 0.11 0.12 0.12 0.12 0.10 0.12 0.12 0.16 0.21 0.21 0.18 0.16 0.16 0.14 0.14 0.15 0.16 0.18 0.20 0.22 0.21 0.21 0.22 0.22 0.21 0.22 0.22 0.22 0.23 0.24 0.24
0.40 0.41 0.43 0.43 0.43 0.43 0.44 0.45 0.44 0.43 0.43 0.38 0.35 0.34 0.33 0.28 0.26 0.25 0.30 0.29 0.25 0.24 0.25 0.25 0.26 0.24 0.25 0.26 0.25 0.30 0.34 0.33 0.25 0.27 0.29 0.32 0.29 0.25 0.23 0.25 0.21 0.22 0.18 0.13 0.16 0.17 0.21 0.12 0.11 0.11 0.12 0.14 0.16 0.17 0.17 0.16 0.16 0.15 0.14 0.13 0.12 0.12 0.12 0.16 0.17 0.20 0.24 0.18 0.15 0.16 0.16 0.16 0.15 0.16 0.17 0.19 0.22 0.21 0.20 0.20 0.20 0.20 0.21 0.21 0.22 0.22 0.24 0.25
0.38 0.38 0.42 0.42 0.43 0.43 0.43 0.44 0.43 0.42 0.41 0.38 0.34 0.30 0.21 0.21 0.18 0.17 0.22 0.25 0.28 0.28 0.25 0.25 0.25 0.23 0.22 0.26 0.27 0.26 0.22 0.22 0.26 0.25 0.28 0.34 0.27 0.23 0.18 0.20 0.17 0.13 0.16 0.17 0.15 0.19 0.20 0.11 0.11 0.14 0.16 0.17 0.17 0.18 0.18 0.17 0.17 0.15 0.13 0.12 0.12 0.13 0.11 0.15 0.16 0.21 0.23 0.17 0.13 0.16 0.15 0.14 0.15 0.16 0.17 0.19 0.19 0.17 0.17 0.18 0.19 0.19 0.21 0.21 0.21 0.21 0.23 0.25
0.36 0.38 0.40 0.42 0.43 0.42 0.43 0.43 0.43 0.43 0.43 0.39 0.34 0.28 0.27 0.26 0.30 0.30 0.26 0.18 0.23 0.27 0.26 0.25 0.27 0.23 0.27 0.27 0.28 0.29 0.25 0.19 0.20 0.23 0.27 0.29 0.21 0.18 0.17 0.18 0.14 0.12 0.16 0.16 0.15 0.13 0.11 0.09 0.13 0.16 0.19 0.19 0.19 0.19 0.19 0.17 0.15 0.15 0.13 0.12 0.11 0.12 0.14 0.16 0.17 0.20 0.21 0.18 0.13 0.16 0.13 0.12 0.13 0.14 0.15 0.16 0.16 0.17 0.18 0.19 0.19 0.20 0.20 0.21 0.21 0.22 0.23 0.25
0.35 0.35 0.39 0.40 0.41 0.42 0.43 0.44 0.42 0.41 0.38 0.33 0.28 0.28 0.27 0.33 0.38 0.35 0.29 0.22 0.19 0.25 0.24 0.24 0.22 0.22 0.23 0.27 0.28 0.30 0.19 0.17 0.16 0.21 0.23 0.28 0.21 0.19 0.19 0.15 0.13 0.14 0.16 0.16 0.10 0.09 0.08 0.11 0.16 0.19 0.20 0.18 0.17 0.18 0.17 0.16 0.16 0.13 0.13 0.11 0.10 0.13 0.12 0.09 0.14 0.18 0.20 0.18 0.15 0.15 0.13 0.11 0.13 0.13 0.13 0.15 0.15 0.15 0.18 0.19 0.20 0.21 0.20 0.21 0.21 0.22 0.22 0.23
0.35 0.34 0.35 0.38 0.40 0.40 0.43 0.41 0.42 0.38 0.35 0.33 0.31 0.30 0.36 0.39 0.36 0.31 0.23 0.17 0.17 0.21 0.24 0.24 0.25 0.24 0.22 0.22 0.27 0.25 0.20 0.19 0.22 0.19 0.29 0.27 0.20 0.23 0.19 0.17 0.15 0.14 0.12 0.14 0.13 0.11 0.10 0.14 0.20 0.20 0.19 0.17 0.15 0.15 0.15 0.14 0.12 0.13 0.13 0.12 0.11 0.12 0.13 0.13 0.13 0.17 0.19 0.19 0.19 0.16 0.13 0.09 0.11 0.09 0.10 0.13 0.16 0.15 0.16 0.18 0.19 0.21 0.22 0.23 0.24 0.24 0.24 0.23
0.35 0.34 0.34 0.35 0.37 0.41 0.39 0.41 0.35 0.34 0.37 0.35 0.33 0.38 0.41 0.40 0.38 0.35 0.24 0.18 0.18 0.18 0.27 0.24 0.27 0.25 0.28 0.35 0.33 0.24 0.23 0.23 0.23 0.25 0.28 0.29 0.24 0.24 0.18 0.22 0.18 0.13 0.15 0.16 0.15 0.14 0.14 0.19 0.22 0.19 0.17 0.17 0.16 0.14 0.15 0.14 0.11 0.12 0.14 0.14 0.13 0.14 0.13 0.14 0.16 0.14 0.12 0.11 0.15 0.14 0.07 0.07 0.09 0.09 0.09 0.12 0.13 0.13 0.17 0.16 0.17 0.19 0.21 0.23 0.21 0.22 0.24 0.25
0.33 0.35 0.33 0.34 0.34 0.36 0.38 0.29 0.30 0.36 0.33 0.30 0.34 0.39 0.42 0.43 0.41 0.37 0.22 0.15 0.12 0.17 0.24 0.17 0.29 0.19 0.34 0.23 0.29 0.28 0.27 0.18 0.24 0.26 0.29 0.29 0.33 0.23 0.22 0.18 0.20 0.13 0.16 0.16 0.14 0.16 0.16 0.20 0.21 0.18 0.17 0.16 0.16 0.14 0.16 0.16 0.11 0.10 0.11 0.16 0.16 0.15 0.15 0.14 0.13 0.13 0.09 0.08 0.13 0.16 0.09 0.05 0.09 0.09 0.10 0.12 0.12 0.12 0.15 0.15 0.16 0.18 0.20 0.21 0.21 0.22 0.22 0.23
0.32 0.33 0.34 0.33 0.33 0.35 0.26 0.24 0.35 0.35 0.27 0.28 0.38 0.42 0.41 0.42 0.43 0.33 0.22 0.12 0.11 0.16 0.15 0.20 0.24 0.21 0.30 0.24 0.25 0.28 0.13 0.15 0.25 0.27 0.27 0.30 0.25 0.31 0.18 0.17 0.21 0.22 0.22 0.20 0.14 0.12 0.19 0.18 0.19 0.20 0.17 0.16 0.15 0.13 0.16 0.17 0.13 0.10 0.17 0.18 0.17 0.15 0.14 0.14 0.13 0.13 0.11 0.14 0.15 0.15 0.13 0.08 0.06 0.07 0.11 0.13 0.11 0.12 0.13 0.15 0.16 0.17 0.19 0.20 0.21 0.22 0.22 0.24
0.34 0.32 0.32 0.34 0.33 0.30 0.27 0.29 0.30 0.28 0.28 0.35 0.42 0.42 0.41 0.40 0.40 0.34 0.18 0.09 0.09 0.20 0.16 0.19 0.21 0.31 0.25 0.25 0.25 0.19 0.18 0.22 0.17 0.20 0.27 0.30 0.30 0.25 0.21 0.18 0.16 0.16 0.20 0.18 0.09 0.14 0.18 0.16 0.17 0.16 0.16 0.15 0.13 0.15 0.18 0.19 0.14 0.14 0.18 0.19 0.16 0.16 0.15 0.15 0.14 0.12 0.13 0.11 0.08 0.11 0.15 0.08 0.07 0.09 0.12 0.12 0.09 0.11 0.12 0.14 0.15 0.17 0.19 0.20 0.21 0.22 0.23 0.25
0.34 0.33 0.32 0.33 0.32 0.31 0.32 0.30 0.30 0.27 0.37 0.42 0.42 0.42 0.41 0.39 0.31 0.20 0.14 0.09 0.14 0.16 0.26 0.19 0.32 0.25 0.23 0.26 0.20 0.21 0.20 0.21 0.15 0.20 0.26 0.30 0.29 0.24 0.18 0.21 0.20 0.18 0.21 0.19 0.13 0.14 0.19 0.19 0.19 0.19 0.16 0.14 0.17 0.18 0.20 0.20 0.14 0.18 0.19 0.20 0.19 0.18 0.16 0.15 0.13 0.12 0.12 0.09 0.06 0.09 0.12 0.07 0.06 0.08 0.09 0.11 0.11 0.11 0.12 0.13 0.15 0.17 0.19 0.20 0.20 0.21 0.23 0.24
0.34 0.33 0.32 0.31 0.29 0.29 0.29 0.32 0.30 0.39 0.41 0.42 0.41 0.39 0.37 0.31 0.23 0.14 0.11 0.08 0.16 0.12 0.20 0.20 0.20 0.17 0.22 0.17 0.17 0.19 0.17 0.18 0.20 0.20 0.21 0.19 0.21 0.26 0.24 0.28 0.18 0.15 0.15 0.19 0.17 0.17 0.19 0.24 0.26 0.20 0.17 0.20 0.20 0.21 0.21 0.20 0.20 0.22 0.20 0.17 0.15 0.14 0.14 0.14 0.13 0.12 0.10 0.06 0.07 0.10 0.13 0.11 0.06 0.06 0.08 0.09 0.09 0.11 0.13 0.14 0.16 0.18 0.19 0.20 0.21 0.22 0.22 0.24
0.33 0.33 0.31 0.31 0.25 0.27 0.28 0.24 0.29 0.40 0.42 0.41 0.39 0.34 0.29 0.23 0.15 0.12 0.09 0.12 0.19 0.16 0.22 0.18 0.17 0.23 0.17 0.15 0.14 0.18 0.18 0.18 0.17 0.19 0.16 0.19 0.17 0.19 0.20 0.20 0.20 0.15 0.15 0.15 0.13 0.16 0.17 0.19 0.18 0.21 0.26 0.24 0.23 0.19 0.23 0.23 0.21 0.20 0.16 0.13 0.12 0.11 0.11 0.10 0.10 0.11 0.06 0.05 0.08 0.12 0.12 0.13 0.07 0.06 0.10 0.11 0.13 0.13 0.14 0.14 0.15 0.16 0.17 0.19 0.20 0.21 0.22 0.23
0.33 0.32 0.32 0.29 0.28 0.31 0.23 0.22 0.33 0.41 0.41 0.40 0.34 0.27 0.22 0.13 0.14 0.10 0.10 0.21 0.12 0.14 0.15 0.16 0.18 0.17 0.16 0.18 0.15 0.15 0.15 0.17 0.18 0.17 0.15 0.15 0.14 0.14 0.14 0.12 0.13 0.09 0.09 0.10 0.09 0.13 0.11 0.14 0.18 0.21 0.27 0.22 0.19 0.16 0.17 0.19 0.20 0.17 0.14 0.13 0.09 0.06 0.07 0.05 0.07 0.05 0.06 0.05 0.09 0.12 0.13 0.09 0.08 0.08 0.10 0.11 0.12 0.14 0.16 0.16 0.16 0.17 0.18 0.18 0.18 0.20 0.22 0.23
0.34 0.33 0.33 0.33 0.32 0.29 0.32 0.36 0.41 0.42 0.41 0.35 0.27 0.25 0.17 0.12 0.09 0.13 0.13 0.15 0.11 0.17 0.15 0.20 0.15 0.15 0.15 0.15 0.13 0.15 0.19 0.14 0.17 0.17 0.18 0.16 0.14 0.16 0.18 0.16 0.17 0.12 0.09 0.11 0.11 0.10 0.10 0.15 0.17 0.19 0.20 0.23 0.20 0.12 0.12 0.12 0.15 0.14 0.12 0.11 0.08 0.06 0.05 0.04 0.05 0.06 0.06 0.08 0.10 0.11 0.14 0.08 0.08 0.10 0.11 0.11 0.13 0.15 0.16 0.17 0.18 0.18 0.18 0.18 0.19 0.20 0.21 0.22
0.36 0.35 0.31 0.35 0.35 0.37 0.40 0.43 0.44 0.42 0.33 0.30 0.24 0.21 0.15 0.11 0.10 0.17 0.13 0.15 0.14 0.20 0.19 0.16 0.16 0.17 0.14 0.12 0.13 0.16 0.13 0.17 0.16 0.15 0.17 0.14 0.14 0.13 0.15 0.17 0.18 0.14 0.13 0.12 0.10 0.10 0.07 0.07 0.12 0.14 0.12 0.20 0.18 0.17 0.16 0.14 0.14 0.13 0.17 0.14 0.10 0.08 0.07 0.05 0.05 0.04 0.05 0.06 0.09 0.13 0.09 0.06 0.06 0.07 0.11 0.13 0.14 0.15 0.17 0.18 0.18 0.19 0.20 0.20 0.21 0.21 0.22 0.22
0.37 0.35 0.35 0.36 0.36 0.38 0.41 0.43 0.43 0.40 0.31 0.28 0.22 0.15 0.11 0.11 0.13 0.13 0.13 0.14 0.16 0.17 0.15 0.19 0.14 0.14 0.13 0.13 0.15 0.16 0.15 0.13 0.16 0.15 0.14 0.13 0.12 0.14 0.13 0.14 0.17 0.16 0.14 0.10 0.11 0.10 0.09 0.08 0.11 0.17 0.17 0.19 0.16 0.20 0.20 0.17 0.14 0.17 0.17 0.16 0.12 0.10 0.13 0.07 0.09 0.08 0.08 0.08 0.07 0.09 0.07 0.09 0.08 0.11 0.12 0.13 0.15 0.14 0.17 0.18 0.18 0.19 0.21 0.21 0.21 0.20 0.20 0.21
0.35 0.33 0.35 0.31 0.33 0.37 0.42 0.42 0.42 0.38 0.29 0.24 0.16 0.13 0.12 0.13 0.12 0.15 0.15 0.19 0.18 0.15 0.15 0.16 0.14 0.12 0.12 0.12 0.14 0.14 0.18 0.13 0.14 0.14 0.13 0.13 0.15 0.14 0.16 0.16 0.15 0.16 0.12 0.09 0.10 0.08 0.09 0.07 0.13 0.16 0.18 0.17 0.18 0.20 0.19 0.19 0.08 0.13 0.14 0.10 0.13 0.18 0.15 0.12 0.12 0.13 0.13 0.10 0.06 0.09 0.08 0.09 0.12 0.09 0.12 0.12 0.12 0.13 0.15 0.16 0.17 0.18 0.20 0.21 0.20 0.20 0.20 0.21
0.29 0.31 0.27 0.31 0.33 0.40 0.42 0.42 0.39 0.34 0.28 0.21 0.15 0.13 0.15 0.16 0.18 0.17 0.20 0.17 0.17 0.18 0.15 0.11 0.12 0.12 0.11 0.10 0.11 0.12 0.13 0.15 0.13 0.12 0.10 0.13 0.12 0.15 0.15 0.15 0.19 0.17 0.17 0.13 0.10 0.13 0.08 0.07 0.11 0.12 0.12 0.18 0.22 0.21 0.21 0.21 0.19 0.16 0.10 0.13 0.19 0.21 0.18 0.14 0.09 0.10 0.09 0.06 0.06 0.08 0.06 0.06 0.07 0.05 0.10 0.11 0.11 0.13 0.13 0.14 0.17 0.18 0.20 0.20 0.20 0.20 0.20 0.20
0.30 0.28 0.27 0.28 0.33 0.42 0.43 0.38 0.35 0.30 0.24 0.17 0.14 0.15 0.19 0.15 0.21 0.20 0.23 0.20 0.20 0.18 0.13 0.11 0.12 0.14 0.10 0.10 0.10 0.11 0.13 0.11 0.11 0.11 0.10 0.12 0.10 0.17 0.15 0.14 0.18 0.16 0.17 0.19 0.12 0.11 0.13 0.07 0.09 0.12 0.14 0.17 0.19 0.19 0.16 0.20 0.22 0.15 0.14 0.21 0.12 0.10 0.09 0.14 0.11 0.06 0.06 0.06 0.06 0.07 0.07 0.07 0.07 0.07 0.08 0.09 0.10 0.11 0.12 0.14 0.16 0.18 0.18 0.18 0.19 0.20 0.20 0.21
0.29 0.25 0.20 0.25 0.34 0.37 0.37 0.36 0.30 0.22 0.18 0.14 0.14 0.13 0.16 0.18 0.22 0.19 0.21 0.21 0.19 0.15 0.11 0.12 0.10 0.12 0.12 0.10 0.11 0.12 0.12 0.09 0.11 0.10 0.09 0.11 0.09 0.14 0.14 0.15 0.13 0.18 0.18 0.18 0.13 0.13 0.14 0.07 0.08 0.14 0.13 0.15 0.14 0.14 0.08 0.11 0.20 0.21 0.21 0.17 0.20 0.15 0.12 0.10 0.11 0.10 0.10 0.07 0.07 0.06 0.07 0.05 0.07 0.08 0.10 0.10 0.11 0.13 0.13 0.14 0.16 0.17 0.18 0.18 0.19 0.19 0.19 0.19
0.23 0.19 0.16 0.25 0.32 0.34 0.32 0.28 0.22 0.18 0.14 0.11 0.12 0.13 0.17 0.14 0.18 0.21 0.21 0.20 0.15 0.13 0.11 0.12 0.13 0.11 0.12 0.11 0.12 0.10 0.12 0.12 0.11 0.10 0.11 0.11 0.10 0.15 0.13 0.18 0.14 0.15 0.18 0.19 0.15 0.18 0.11 0.12 0.06 0.09 0.13 0.13 0.07 0.11 0.08 0.11 0.10 0.12 0.13 0.12 0.15 0.15 0.17 0.15 0.14 0.11 0.09 0.08 0.08 0.07 0.06 0.06 0.08 0.11 0.11 0.11 0.13 0.14 0.16 0.16 0.16 0.17 0.18 0.19 0.19 0.19 0.19 0.19
0.20 0.16 0.16 0.26 0.29 0.30 0.28 0.19 0.14 0.13 0.12 0.15 0.16 0.14 0.15 0.14 0.17 0.18 0.20 0.22 0.18 0.20 0.14 0.13 0.12 0.10 0.11 0.10 0.10 0.12 0.11 0.11 0.11 0.10 0.10 0.10 0.10 0.08 0.15 0.15 0.17 0.14 0.17 0.16 0.14 0.15 0.11 0.11 0.07 0.08 0.08 0.08 0.08 0.12 0.13 0.13 0.14 0.12 0.12 0.10 0.12 0.11 0.11 0.09 0.08 0.14 0.12 0.10 0.09 0.08 0.06 0.08 0.09 0.14 0.13 0.13 0.15 0.16 0.18 0.17 0.17 0.17 0.18 0.18 0.19 0.19 0.19 0.19
0.16 0.11 0.14 0.25 0.27 0.28 0.21 0.13 0.14 0.17 0.14 0.12 0.11 0.15 0.13 0.20 0.16 0.16 0.18 0.19 0.18 0.15 0.19 0.15 0.15 0.12 0.11 0.11 0.11 0.11 0.10 0.09 0.10 0.09 0.10 0.08 0.11 0.10 0.13 0.19 0.17 0.18 0.13 0.11 0.12 0.17 0.16 0.13 0.11 0.07 0.08 0.08 0.10 0.13 0.16 0.17 0.17 0.15 0.15 0.13 0.16 0.15 0.14 0.12 0.08 0.10 0.12 0.13 0.13 0.12 0.10 0.07 0.11 0.14 0.15 0.15 0.16 0.17 0.18 0.19 0.18 0.17 0.18 0.18 0.19 0.19 0.19 0.20
0.13 0.13 0.20 0.24 0.26 0.21 0.15 0.11 0.15 0.13 0.12 0.14 0.19 0.17 0.19 0.16 0.15 0.16 0.15 0.16 0.13 0.16 0.14 0.13 0.12 0.11 0.12 0.11 0.10 0.10 0.10 0.08 0.09 0.07 0.09 0.09 0.09 0.11 0.15 0.17 0.18 0.16 0.16 0.13 0.15 0.17 0.17 0.11 0.09 0.08 0.09 0.10 0.12 0.14 0.16 0.19 0.17 0.14 0.14 0.16 0.15 0.13 0.15 0.14 0.14 0.14 0.12 0.12 0.11 0.12 0.10 0.08 0.11 0.14 0.15 0.16 0.17 0.18 0.18 0.19 0.18 0.18 0.18 0.18 0.19 0.19 0.20 0.20
0.13 0.13 0.15 0.21 0.24 0.18 0.12 0.08 0.08 0.10 0.12 0.15 0.14 0.14 0.18 0.16 0.14 0.13 0.13 0.14 0.12 0.12 0.11 0.11 0.12 0.13 0.10 0.13 0.11 0.08 0.09 0.05 0.08 0.08 0.07 0.09 0.08 0.16 0.16 0.16 0.18 0.14 0.14 0.13 0.11 0.18 0.10 0.12 0.10 0.07 0.06 0.07 0.08 0.10 0.11 0.16 0.16 0.13 0.12 0.14 0.16 0.16 0.16 0.17 0.17 0.16 0.13 0.11 0.12 0.11 0.08 0.09 0.11 0.14 0.16 0.16 0.17 0.16 0.17 0.18 0.19 0.18 0.19 0.19 0.19 0.20 0.21 0.21
0.12 0.14 0.14 0.15 0.19 0.16 0.09 0.11 0.10 0.09 0.10 0.10 0.10 0.10 0.11 0.13 0.16 0.15 0.13 0.12 0.15 0.13 0.12 0.10 0.11 0.12 0.10 0.12 0.09 0.10 0.11 0.08 0.06 0.10 0.09 0.09 0.10 0.16 0.16 0.17 0.19 0.16 0.19 0.20 0.19 0.21 0.12 0.11 0.11 0.07 0.06 0.05 0.05 0.05 0.06 0.08 0.10 0.12 0.12 0.13 0.15 0.15 0.15 0.15 0.12 0.14 0.11 0.12 0.12 0.11 0.10 0.13 0.14 0.16 0.15 0.16 0.17 0.17 0.17 0.18 0.20 0.21 0.20 0.20 0.20 0.20 0.21 0.21
0.10 0.07 0.10 0.11 0.14 0.13 0.13 0.16 0.13 0.10 0.09 0.08 0.07 0.08 0.10 0.08 0.12 0.15 0.15 0.12 0.14 0.14 0.13 0.12 0.12 0.13 0.10 0.10 0.08 0.08 0.08 0.12 0.09 0.08 0.09 0.09 0.11 0.13 0.17 0.18 0.18 0.18 0.19 0.21 0.21 0.19 0.13 0.14 0.12 0.11 0.09 0.08 0.09 0.11 0.13 0.14 0.12 0.09 0.10 0.13 0.14 0.16 0.17 0.16 0.15 0.12 0.10 0.12 0.11 0.12 0.12 0.13 0.13 0.14 0.15 0.16 0.17 0.17 0.17 0.18 0.19 0.20 0.21 0.22 0.22 0.22 0.22 0.23
0.11 0.07 0.09 0.07 0.11 0.10 0.10 0.12 0.10 0.10 0.07 0.10 0.06 0.08 0.06 0.07 0.09 0.10 0.16 0.09 0.12 0.12 0.13 0.11 0.10 0.08 0.08 0.08 0.07 0.08 0.09 0.09 0.11 0.10 0.09 0.09 0.11 0.13 0.17 0.17 0.18 0.20 0.20 0.20 0.22 0.18 0.14 0.11 0.13 0.12 0.12 0.12 0.13 0.13 0.13 0.14 0.12 0.12 0.12 0.12 0.15 0.15 0.15 0.14 0.12 0.10 0.15 0.13 0.10 0.12 0.13 0.12 0.12 0.14 0.15 0.16 0.17 0.18 0.19 0.20 0.21 0.21 0.21 0.22 0.23 0.23 0.24 0.25
0.07 0.10 0.11 0.11 0.07 0.06 0.07 0.07 0.10 0.08 0.09 0.09 0.07 0.09 0.07 0.07 0.07 0.07 0.11 0.12 0.13 0.14 0.08 0.10 0.10 0.11 0.10 0.09 0.09 0.07 0.08 0.07 0.08 0.07 0.10 0.10 0.10 0.12 0.12 0.17 0.16 0.19 0.20 0.18 0.22 0.17 0.13 0.10 0.12 0.12 0.10 0.13 0.14 0.13 0.14 0.14 0.14 0.14 0.15 0.14 0.14 0.16 0.15 0.13 0.13 0.14 0.15 0.13 0.11 0.13 0.13 0.13 0.14 0.16 0.18 0.19 0.20 0.20 0.21 0.22 0.23 0.24 0.25 0.26 0.27 0.27 0.28 0.29
0.10 0.11 0.11 0.13 0.07 0.09 0.09 0.08 0.10 0.08 0.07 0.08 0.07 0.08 0.07 0.07 0.06 0.08 0.09 0.09 0.10 0.10 0.11 0.06 0.07 0.10 0.11 0.12 0.10 0.07 0.08 0.06 0.06 0.09 0.09 0.09 0.10 0.11 0.10 0.12 0.18 0.19 0.18 0.17 0.18 0.18 0.14 0.11 0.12 0.13 0.10 0.11 0.12 0.13 0.13 0.13 0.13 0.14 0.14 0.14 0.15 0.16 0.15 0.16 0.14 0.15 0.16 0.15 0.16 0.16 0.16 0.15 0.17 0.19 0.20 0.21 0.23 0.23 0.25 0.27 0.28 0.30 0.30 0.32 0.33 0.33 0.35 0.36
0.06 0.06 0.06 0.11 0.10 0.09 0.09 0.09 0.08 0.08 0.06 0.08 0.05 0.07 0.08 0.08 0.07 0.09 0.11 0.09 0.07 0.08 0.12 0.08 0.09 0.10 0.11 0.11 0.10 0.08 0.08 0.09 0.09 0.08 0.11 0.11 0.11 0.12 0.11 0.11 0.11 0.16 0.17 0.14 0.16 0.18 0.13 0.10 0.14 0.12 0.10 0.09 0.11 0.12 0.12 0.12 0.12 0.11 0.12 0.14 0.15 0.14 0.14 0.14 0.15 0.16 0.18 0.18 0.19 0.19 0.18 0.17 0.20 0.23 0.23 0.25 0.27 0.29 0.30 0.33 0.35 0.36 0.37 0.37 0.37 0.37 0.37 0.38
0.10 0.11 0.10 0.07 0.06 0.07 0.09 0.08 0.07 0.07 0.06 0.07 0.07 0.08 0.09 0.09 0.08 0.11 0.10 0.14 0.10 0.08 0.10 0.08 0.10 0.10 0.12 0.11 0.10 0.09 0.12 0.12 0.12 0.12 0.13 0.13 0.09 0.13 0.11 0.11 0.15 0.12 0.14 0.14 0.15 0.14 0.14 0.11 0.13 0.12 0.09 0.07 0.09 0.09 0.09 0.11 0.11 0.10 0.11 0.13 0.12 0.12 0.13 0.14 0.13 0.15 0.15 0.16 0.17 0.17 0.15 0.15 0.20 0.23 0.24 0.26 0.28 0.30 0.32 0.35 0.37 0.38 0.38 0.38 0.36 0.36 0.35 0.35
0.13 0.14 0.13 0.08 0.05 0.08 0.07 0.08 0.09 0.08 0.06 0.09 0.10 0.09 0.08 0.09 0.11 0.12 0.09 0.13 0.14 0.14 0.12 0.12 0.12 0.11 0.10 0.10 0.08 0.10 0.14 0.15 0.15 0.16 0.17 0.18 0.19 0.18 0.18 0.16 0.16 0.14 0.13 0.12 0.15 0.13 0.13 0.11 0.10 0.10 0.07 0.06 0.08 0.10 0.09 0.09 0.08 0.08 0.09 0.11 0.12 0.14 0.15 0.13 0.13 0.15 0.16 0.18 0.15 0.14 0.15 0.21 0.24 0.27 0.27 0.27 0.29 0.32 0.34 0.36 0.36 0.35 0.34 0.34 0.33 0.32 0.32 0.31
Wind_Speed
10 10 10 10 10 10 9 9 9 8 8 7 7 6 6 6 5 5 5 4 4 4 4 4 4 5 6 8 9 9 9 9 9 9 9 7 5 5 5 6 6 7 8 8 8 8 8 7 6 6 5 6 6 6 6 7 7 5 5 5 5 4 4 4 4 5 6 5 4 4 2 3 4 4 5 6 7 8 9 9 9 9 10 10 11 11 11 12
10 10 10 10 10 9 9 9 8 8 7 6 6 5 5 5 5 5 5 4 4 4 3 3 4 6 8 9 10 10 9 9 9 10 9 7 6 6 6 7 7 8 8 8 8 7 7 6 6 5 6 6 6 6 6 7 7 6 5 6 6 6 6 5 5 5 6 5 5 4 4 4 5 5 6 7 7 7 9 9 9 10 10 10 11 11 12 12
10 10 10 10 9 9 9 8 8 7 6 6 5 5 5 5 5 5 5 5 5 4 3 3 6 8 10 11 11 11 10 8 9 8 7 6 6 7 7 7 8 8 8 8 8 7 7 6 6 6 6 7 7 6 6 7 6 6 6 6 6 6 7 6 6 6 6 6 5 5 5 5 6 6 7 7 8 8 9 9 9 10 10 10 10 10 11 12
11 11 11 10 10 9 9 8 7 7 6 5 5 5 5 5 5 5 6 6 6 5 5 6 8 10 11 12 12 12 10 9 8 7 6 6 6 7 8 8 8 9 9 8 8 7 7 7 6 6 7 7 6 6 7 6 6 6 6 7 7 6 7 7 6 6 7 6 4 5 5 5 6 7 7 8 9 9 9 9 9 9 10 10 10 10 11 12
12 12 11 11 10 9 8 8 7 7 6 6 5 5 5 5 6 6 7 8 7 7 7 9 10 12 12 12 12 11 9 9 8 7 7 7 7 8 8 8 9 9 9 8 8 7 7 6 6 6 7 6 5 5 6 6 6 7 7 7 7 6 6 7 6 6 7 6 5 5 5 6 7 7 7 8 9 10 10 10 10 10 10 11 11 10 11 12
13 12 12 11 10 9 8 8 7 7 6 6 5 5 6 6 6 7 8 9 9 9 9 10 11 12 13 12 12 11 9 10 9 7 7 7 7 8 8 8 8 8 7 7 7 6 6 6 5 6 6 5 6 6 6 6 5 6 7 7 7 7 7 7 6 7 6 6 5 5 6 8 7 8 8 8 10 11 12 12 12 12 12 12 12 12 12 13
13 13 12 11 10 10 9 8 7 6 6 6 6 6 6 7 7 8 9 10 11 10 10 11 12 13 13 13 13 13 12 11 9 7 7 7 7 7 7 7 7 7 6 6 6 6 6 5 6 6 6 5 6 6 6 7 7 7 7 7 8 8 7 7 7 7 7 6 6 7 8 8 8 9 10 10 11 12 13 13 13 13 13 13 13 13 13 14
14 13 12 12 11 10 9 8 8 8 8 8 8 8 8 9 9 10 10 11 11 11 11 11 12 13 14 14 15 15 13 11 8 7 7 7 7 7 7 7 7 7 6 6 6 6 5 6 7 6 6 5 5 6 6 7 9 9 7 7 7 8 8 7 7 7 7 8 8 8 8 9 9 11 12 13 14 14 15 14 14 14 14 13 14 14 15 16
14 14 13 12 12 11 10 10 10 11 11 11 12 11 12 12 12 12 12 11 11 11 11 12 14 14 14 14 15 15 13 10 8 8 8 8 7 7 7 7 7 7 7 7 6 5 4 5 5 4 6 6 5 5 5 6 7 8 7 7 7 8 8 8 8 8 8 8 9 9 9 10 11 12 13 14 15 15 15 15 14 14 14 15 15 16 16 17
15 14 14 13 12 12 12 12 13 14 14 14 14 14 15 15 14 14 13 12 12 13 14 14 15 15 15 15 16 15 12 10 9 9 9 9 8 8 8 7 6 7 7 6 6 5 4 5 5 6 7 6 6 6 6 6 6 7 7 8 8 8 8 8 8 8 8 9 9 10 11 11 11 12 13 13 13 13 13 14 14 14 15 16 16 17 17 18
15 14 14 14 14 14 14 15 15 16 16 16 16 17 17 17 16 16 16 16 17 18 19 18 18 18 18 18 17 15 12 11 10 10 9 9 9 9 8 7 6 7 7 6 6 6 6 7 7 5 5 5 6 7 7 6 6 6 6 8 9 8 8 8 8 8 9 9 10 11 13 12 11 11 13 13 13 13 14 14 14 15 15 16 17 17 18 18
15 15 15 15 15 15 16 17 17 18 18 18 18 18 19 19 18 18 19 20 21 21 21 21 21 20 20 19 17 14 12 12 11 10 10 9 10 10 9 9 8 7 7 7 7 7 7 6 5 5 4 4 5 6 6 5 5 6 6 7 8 8 8 7 8 9 9 10 10 11 13 12 9 10 12 13 13 13 14 15 15 15 16 17 17 18 18 19
17 17 17 17 17 17 18 18 19 19 19 19 20 20 20 20 20 21 21 21 21 21 20 19 19 17 18 17 14 13 12 11 11 12 12 11 11 11 10 10 9 9 7 8 7 6 5 4 5 7 6 5 4 4 5 5 5 5 7 7 7 7 8 7 9 9 9 10 10 11 13 12 9 10 12 12 13 14 15 16 16 16 17 17 18 18 19 19
18 18 18 18 18 19 19 19 20 20 20 20 20 20 20 20 21 21 21 20 19 19 19 18 18 17 17 15 13 13 12 11 11 12 11 11 12 12 11 10 10 10 9 9 8 7 6 5 7 8 6 5 5 4 5 5 6 6 7 7 7 8 8 8 8 9 9 10 10 11 13 13 12 11 12 12 13 15 16 17 17 17 18 18 19 19 20 20
19 19 19 19 19 19 19 19 19 20 20 20 20 20 20 21 21 21 20 20 19 19 19 18 16 16 17 15 12 12 11 11 11 11 11 10 11 11 11 10 11 10 10 10 9 8 7 6 7 7 5 5 4 4 5 5 6 7 7 7 8 9 9 8 8 9 10 11 10 11 13 14 14 14 13 13 14 14 16 17 17 18 19 20 20 20 21 21
19 19 19 19 19 19 19 19 19 19 19 20 20 21 21 21 21 21 21 20 19 19 18 17 16 16 16 13 12 11 11 11 10 10 10 10 10 9 8 8 9 8 9 8 7 6 6 5 6 6 5 4 4 4 5 5 6 7 8 8 8 9 10 10 9 10 11 11 11 12 14 15 14 14 14 13 13 14 16 18 19 20 21 21 21 22 22 22
19 19 19 20 20 20 20 20 20 20 20 20 21 21 21 21 20 20 20 20 19 18 17 17 16 15 14 12 11 11 10 9 9 8 8 8 8 7 7 7 6 6 6 6 6 5 5 5 5 4 5 5 5 5 5 6 6 6 8 8 8 9 10 11 10 10 11 12 12 12 14 16 16 15 15 14 14 16 18 19 20 20 21 21 22 22 22 23
19 19 19 20 20 20 20 21 21 21 21 21 21 22 21 21 20 19 18 17 16 15 15 13 12 12 13 12 11 10 9 8 8 8 7 7 7 7 7 6 5 5 4 5 6 6 5 5 4 4 5 6 6 6 7 7 7 7 8 9 10 10 10 12 12 11 11 12 14 14 15 18 18 18 18 17 16 17 18 19 20 20 21 22 22 23 23 23
19 19 20 20 20 20 20 21 21 21 22 22 21 21 21 20 20 19 17 16 15 13 13 12 12 12 12 12 10 10 9 8 8 8 7 7 6 6 6 6 5 5 4 4 6 7 6 5 4 4 5 6 7 7 8 8 9 8 9 10 11 12 12 12 12 12 13 14 15 16 17 18 20 20 20 19 16 16 19 19 19 21 22 22 22 22 23 23
19 20 20 20 20 20 21 21 22 23 23 23 21 20 20 19 18 18 18 18 17 15 14 14 14 14 12 11 9 9 9 9 8 8 8 7 6 6 6 6 5 6 5 5 6 6 6 5 5 6 6 7 8 8 9 9 9 9 10 11 12 13 13 13 13 13 14 16 16 16 18 20 20 21 21 20 17 17 19 19 19 20 22 22 22 23 23 23
19 19 20 20 20 20 21 22 23 23 22 21 19 19 18 17 17 17 17 17 17 15 15 14 13 13 12 10 9 8 8 8 9 9 8 7 5 5 6 6 5 6 6 5 5 6 6 6 6 7 7 8 8 8 9 9 10 10 10 12 13 13 14 14 13 14 14 16 17 16 19 21 21 21 22 22 19 19 20 19 19 20 21 22 22 23 23 24
18 18 19 20 20 21 21 22 22 22 20 19 19 19 18 18 18 18 17 16 15 14 14 13 12 12 11 9 9 7 7 8 9 9 8 7 6 6 6 7 6 6 6 6 5 6 6 6 7 7 7 8 8 8 9 10 10 11 11 13 14 14 15 15 14 15 15 16 18 19 21 22 22 23 23 22 21 21 21 20 20 21 21 22 22 23 24 25
17 17 18 19 20 20 21 21 21 20 19 19 19 19 19 19 18 17 15 15 14 13 13 12 11 11 9 9 8 7 7 7 7 8 9 7 7 7 6 7 7 6 7 7 6 6 7 7 8 7 7 8 9 10 10 11 11 12 12 14 15 15 16 16 15 16 16 17 20 21 22 22 22 21 20 20 20 20 21 20 21 21 21 22 23 24 25 26
16 16 16 17 18 19 20 20 19 18 17 17 17 17 17 16 15 13 13 12 12 11 11 10 10 10 9 8 7 7 8 7 6 8 9 8 6 6 6 7 7 7 8 9 8 7 8 9 9 8 9 10 11 11 11 12 12 13 13 14 16 16 16 17 18 19 18 18 19 22 23 20 19 19 19 18 18 19 19 20 21 21 21 22 23 25 25 26
15 15 15 16 16 17 17 17 16 15 14 14 14 13 14 13 12 11 10 10 10 9 8 8 8 8 8 7 7 6 6 7 7 8 8 8 7 6 6 7 8 7 8 9 9 8 9 10 10 9 10 11 12 12 12 13 14 14 14 15 17 18 18 19 20 21 20 17 17 20 21 19 18 20 21 19 19 20 19 19 21 21 21 22 23 25 25 26
14 14 15 15 15 15 15 13 12 12 11 10 10 10 10 9 9 8 8 8 8 8 7 6 6 7 7 7 7 5 4 5 7 8 8 8 8 6 7 8 8 8 8 10 10 10 10 11 11 12 12 12 13 14 13 14 15 15 15 16 17 18 19 20 20 20 19 18 18 19 20 21 22 22 21 21 22 22 21 20 21 21 21 22 23 25 26 27
13 14 14 14 14 14 13 11 10 10 8 8 8 8 7 6 7 6 5 6 7 7 6 6 6 7 7 7 7 5 4 6 6 7 8 9 8 8 8 9 9 9 10 10 11 11 11 11 12 13 14 14 15 15 14 15 16 16 16 17 17 18 19 20 20 20 20 20 20 18 18 21 23 22 21 21 23 23 21 20 20 21 22 23 24 25 26 27
13 13 14 14 13 13 11 10 10 9 7 7 7 6 6 5 6 5 5 5 6 6 6 6 6 6 7 7 8 6 6 7 6 7 9 9 9 9 9 9 10 10 11 12 13 12 12 13 13 13 14 15 15 16 15 15 17 17 17 18 18 19 20 20 20 20 20 21 19 16 17 19 22 22 21 21 22 23 23 22 21 21 22 24 25 26 27 28
14 14 14 13 13 12 10 9 9 8 7 6 7 6 5 4 5 5 5 5 5 5 5 6 5 6 7 6 7 8 7 8 8 9 10 9 10 10 10 10 10 11 12 13 14 14 14 15 15 15 15 16 16 16 16 17 18 18 17 18 18 19 20 19 20 20 19 19 18 17 18 19 22 24 21 20 22 23 23 23 22 22 24 25 26 27 28 29
14 14 14 13 12 10 9 8 7 7 6 6 6 5 5 5 5 4 5 5 5 5 5 6 6 7 8 6 7 9 8 8 9 10 10 10 11 11 11 11 11 12 13 13 14 15 15 16 16 16 16 16 16 17 17 18 18 18 18 20 20 19 19 19 19 19 18 18 17 17 19 20 21 23 22 21 23 23 23 23 23 23 25 26 27 29 29 29
14 13 13 12 10 9 8 7 7 6 6 6 5 5 5 5 5 5 5 4 4 5 5 6 6 7 8 7 7 9 9 9 11 11 11 11 12 13 12 12 13 14 13 14 15 16 16 16 16 16 16 17 17 17 17 18 18 19 20 21 21 20 19 18 18 17 18 18 17 18 20 20 20 22 23 24 25 23 22 23 24 25 27 28 29 30 30 29
15 14 13 11 10 8 7 7 6 6 5 5 5 5 5 5 6 6 5 4 4 5 6 6 7 7 8 8 8 10 10 10 12 12 12 12 13 13 14 14 15 15 15 16 17 17 16 16 16 16 16 18 19 19 18 17 18 20 21 21 21 20 19 19 18 18 19 19 18 20 22 21 22 24 26 27 27 23 21 22 25 26 28 29 30 31 31 30
15 14 13 11 10 8 8 7 7 6 5 5 5 5 5 5 5 5 5 5 5 6 6 6 7 8 9 9 9 11 10 10 12 12 12 13 13 13 14 15 16 16 16 18 19 19 18 16 16 17 17 18 19 20 19 19 19 21 21 20 20 20 20 20 20 20 21 21 20 21 23 23 23 25 26 26 25 23 23 24 26 27 28 29 30 31 31 32
14 13 12 11 10 9 8 7 7 6 5 5 4 5 6 6 5 5 5 6 6 6 7 7 8 8 9 10 10 11 11 11 13 13 13 13 13 14 14 15 16 17 18 18 18 19 18 17 17 18 19 19 19 19 20 20 21 21 20 20 21 20 20 21 21 21 23 24 23 22 22 22 23 26 25 23 24 25 25 26 27 28 28 29 30 31 32 32
13 12 11 10 9 8 8 7 6 5 5 5 5 6 6 5 5 5 6 6 6 7 7 8 9 9 9 10 11 12 12 12 13 14 14 15 14 15 16 16 18 18 19 19 19 18 18 18 19 19 19 19 19 19 19 21 21 19 20 21 21 20 21 22 22 22 24 25 24 22 22 23 26 28 25 22 23 24 25 26 27 29 30 30 31 31 32 33
11 10 9 9 8 7 6 6 5 5 4 5 6 6 6 5 5 6 6 7 7 8 9 8 10 10 10 11 11 12 13 13 15 15 15 15 14 16 17 17 18 19 19 20 19 19 19 19 19 19 18 18 19 20 20 22 21 20 22 22 21 22 22 22 23 22 23 25 24 23 25 27 28 27 23 21 23 24 26 27 27 30 32 32 32 33 33 34
9 9 9 8 7 6 5 5 5 4 4 5 6 6 6 6 6 7 7 8 8 9 10 9 10 11 11 12 13 14 14 14 15 16 15 15 15 16 17 17 18 19 19 19 19 19 21 22 20 18 19 19 20 21 21 22 22 23 23 23 22 22 22 22 23 23 23 25 25 25 27 29 27 24 22 23 25 27 28 28 28 31 33 33 34 35 35 35
7 7 8 8 7 6 5 5 5 5 5 6 6 6 6 6 7 7 8 9 9 9 10 10 11 12 12 13 14 15 16 16 16 16 15 16 16 17 17 17 19 19 19 20 20 20 22 23 21 19 21 21 21 23 23 22 22 23 23 23 23 23 22 22 23 24 25 26 26 26 28 29 27 25 25 27 29 31 32 30 30 32 33 34 35 36 37 36
5 6 7 8 8 6 5 5 5 5 6 6 6 6 6 7 7 8 8 9 9 9 10 11 11 12 12 13 14 15 15 16 17 16 16 17 18 17 18 19 20 19 20 22 22 22 23 23 22 21 22 24 23 23 24 23 22 23 23 23 23 24 24 24 24 24 25 26 28 27 27 29 28 26 28 31 33 33 34 33 32 33 33 33 34 36 37 37
5 5 6 8 7 6 6 6 6 7 6 6 6 6 6 7 7 8 8 9 9 10 10 10 11 12 13 13 14 15 16 16 16 16 17 18 19 19 19 20 21 21 22 23 24 24 24 23 25 25 24 25 25 24 24 24 23 23 24 24 25 25 25 26 26 25 25 26 27 26 27 31 30 28 30 33 33 33 33 34 34 33 34 34 34 36 37 38
5 5 6 8 7 5 6 7 8 7 6 6 6 6 6 7 7 8 9 10 10 11 11 11 12 13 14 15 15 16 17 17 17 17 18 19 20 21 21 22 24 24 24 25 25 25 25 25 27 28 28 28 27 25 25 24 23 24 26 26 26 26 26 26 27 25 25 26 27 26 29 33 31 28 30 32 32 32 32 32 34 34 35 36 36 37 38 39
5 5 6 8 7 5 6 7 7 7 6 6 7 7 7 8 9 10 10 11 11 12 12 13 14 14 15 16 16 17 18 18 18 19 20 20 21 22 23 23 24 25 26 26 26 26 27 27 28 30 30 29 27 24 24 24 25 27 27 27 27 26 26 27 27 26 26 27 27 26 29 32 30 28 30 31 30 31 32 32 34 35 36 36 36 38 39 40
6 6 6 7 6 6 6 7 7 7 7 7 8 8 9 9 10 11 11 12 12 13 13 14 15 15 16 17 17 18 18 18 18 20 20 21 22 23 23 24 25 25 26 26 26 26 27 27 28 31 31 28 25 23 23 24 27 29 28 27 27 27 27 27 28 28 28 28 28 27 29 33 31 28 28 29 31 32 33 33 33 34 35 36 37 38 40 41
6 7 8 8 6 5 6 7 7 7 8 7 8 9 9 10 11 11 12 13 13 13 14 14 15 16 16 17 17 18 18 18 19 19 20 21 21 22 23 24 24 25 25 25 25 26 26 26 28 31 31 29 26 25 25 27 29 30 29 28 28 28 27 27 28 28 29 30 29 28 30 33 33 30 30 32 34 35 35 34 34 34 36 37 38 39 41 42
6 7 8 10 9 7 7 7 7 7 8 8 8 10 10 10 11 12 12 13 13 13 14 14 15 15 16 16 17 17 18 19 19 19 20 21 21 22 23 24 24 24 25 25 25 26 26 26 26 27 28 27 27 28 28 30 31 30 29 28 28 28 27 27 28 27 28 29 28 28 31 35 36 35 35 35 35 36 37 37 36 36 37 38 39 40 41 42
5 6 7 9 10 9 8 8 8 8 8 8 9 10 11 10 11 12 12 12 13 13 14 14 15 15 16 16 17 17 18 18 19 20 21 21 22 22 23 24 24 24 25 25 25 26 26 26 26 26 26 26 28 30 29 29 31 32 32 29 26 25 26 26 27 27 28 28 29 30 32 35 37 37 36 36 36 37 38 38 38 39 40 41 41 41 42 42
6 6 7 8 8 9 9 9 9 9 8 9 9 10 11 11 11 11 12 12 13 14 14 14 15 16 16 17 18 18 18 19 19 20 21 22 22 23 23 24 24 24 25 25 25 25 26 26 25 26 27 27 28 30 29 29 31 32 33 30 25 23 24 25 26 27 28 27 29 31 31 33 35 36 35 36 37 37 38 39 41 41 42 43 43 43 43 43
6 6 7 7 7 8 9 9 10 10 10 10 9 9 11 11 11 12 12 13 13 14 14 15 16 17 17 18 18 19 20 20 20 21 22 22 23 23 23 23 23 24 25 25 25 25 26 26 25 26 28 27 27 28 30 30 30 31 31 29 26 23 23 24 27 28 27 27 29 32 33 34 36 36 35 36 37 38 39 41 42 42 43 44 45 45 45 45
6 5 6 7 7 7 8 9 9 10 11 11 10 10 11 12 12 12 13 13 14 15 16 16 17 18 18 18 19 20 21 21 22 23 23 23 23 24 24 24 23 24 24 25 25 25 25 26 25 25 28 29 26 27 29 29 30 31 29 26 25 26 24 25 28 28 27 29 32 34 36 37 36 34 35 37 38 39 40 41 42 43 44 45 44 44 44 44
7 6 7 8 8 9 9 9 9 10 10 11 10 11 11 12 13 13 13 14 15 16 16 17 18 19 18 19 19 20 20 21 22 23 23 23 24 24 24 24 24 24 24 25 25 25 25 26 25 25 28 29 26 26 27 27 29 30 27 24 26 28 26 25 27 28 27 29 32 33 35 35 33 33 35 37 39 40 41 42 43 43 44 43 42 41 42 42
8 8 7 8 9 10 10 9 9 9 10 11 11 11 12 12 13 13 14 14 15 16 17 18 19 18 18 19 19 20 21 22 23 23 23 24 25 24 24 24 24 24 24 25 25 25 25 25 25 26 28 28 26 27 29 30 29 25 24 26 28 26 24 24 26 26 26 29 31 31 32 33 32 34 37 38 39 42 43 42 42 42 42 42 40 40 40 41
9 8 9 9 9 9 10 9 9 9 10 11 12 12 12 13 13 13 14 15 15 16 17 18 19 19 19 19 20 21 23 23 24 24 24 24 24 24 24 24 23 24 24 24 25 25 25 25 26 26 27 28 28 29 31 32 28 21 21 26 27 24 24 27 27 26 26 27 29 31 32 34 35 36 37 39 41 42 43 42 42 42 42 41 39 38 39 39
Wind_Direction
192 192 191 192 191 191 191 191 192 194 196 199 208 216 223 224 222 215 204 201 200 200 197 196 195 180 169 161 153 145 133 129 124 116 115 109 101 108 115 120 119 122 128 126 125 121 114 110 103 100 98 85 75 75 71 62 58 59 58 57 61 62 62 65 75 53 37 60 68 47 32 357 3 358 348 344 331 325 327 320 317 318 313 315 322 324 323 321
178 180 181 182 182 183 184 185 187 189 193 201 211 214 215 209 202 193 187 193 194 193 191 189 178 166 162 157 152 148 140 134 121 109 111 105 96 109 112 116 116 117 124 124 124 123 118 114 107 98 93 83 73 71 69 57 51 55 56 53 58 55 50 47 57 51 33 54 68 47 27 2 5 7 359 346 336 334 329 323 321 319 315 312 315 317 317 316
164 166 168 169 171 173 175 177 180 184 191 199 203 200 195 190 185 182 183 182 176 171 167 160 156 154 154 154 153 149 145 138 119 108 110 99 94 109 112 116 117 114 115 119 122 122 119 114 105 94 88 81 70 68 63 53 49 52 52 56 58 51 49 43 43 44 25 39 65 48 27 6 5 7 3 349 341 341 332 328 326 318 314 313 313 314 314 311
151 152 152 153 156 160 164 168 173 179 182 184 183 179 177 176 175 173 168 160 151 143 136 137 143 146 147 151 154 150 147 137 120 116 113 96 98 108 110 112 115 116 112 114 119 118 115 105 95 88 84 77 63 65 56 45 50 52 47 51 58 54 54 47 36 34 21 28 48 43 30 5 2 3 357 350 345 342 331 323 321 320 318 317 317 316 313 310
138 139 140 143 146 150 155 159 162 164 165 166 166 167 166 164 163 158 156 151 141 133 128 128 133 140 145 150 153 152 150 140 125 121 114 100 102 107 108 110 112 117 115 115 116 114 109 97 92 83 75 69 56 64 54 43 53 56 46 43 50 45 45 45 32 29 24 28 36 35 24 6 4 356 344 343 343 342 338 326 317 319 321 324 324 319 316 311
130 132 135 136 139 141 144 147 149 153 156 160 160 160 157 155 154 151 154 152 143 136 131 128 129 136 141 144 148 147 143 137 129 121 113 102 104 107 109 111 115 121 117 115 113 109 106 93 88 79 73 67 54 61 52 41 50 56 49 40 39 31 37 42 29 25 23 28 32 22 10 4 358 346 342 335 325 330 340 339 330 323 322 327 330 322 317 313
127 129 130 130 131 131 133 135 139 144 147 149 150 150 147 145 147 147 150 150 147 141 135 133 132 133 133 132 134 130 125 127 124 116 107 102 106 111 115 113 116 122 116 113 108 104 103 94 93 85 78 73 63 63 53 47 49 52 53 41 34 31 34 34 24 23 20 17 17 11 1 355 345 342 348 333 314 316 327 335 335 332 330 329 327 321 317 314
124 124 124 123 122 121 121 122 124 126 125 126 127 127 129 132 135 138 142 146 148 145 140 138 137 136 133 131 128 119 116 119 115 106 102 104 107 112 120 117 112 114 108 105 106 107 103 98 101 91 73 69 65 62 49 50 48 46 50 40 34 31 29 29 23 22 16 9 8 3 351 345 344 344 343 325 313 315 318 323 326 329 330 327 323 319 316 314
118 118 117 116 115 114 113 113 112 112 112 112 113 115 120 124 126 127 131 138 143 143 139 137 137 137 135 134 128 119 115 114 107 101 98 102 109 111 116 116 109 108 103 99 103 107 103 101 101 91 84 76 65 52 33 36 40 40 44 38 36 31 24 23 19 16 10 5 1 352 341 343 346 344 336 319 316 322 322 322 322 322 321 319 319 317 316 315
114 114 113 112 111 110 108 108 108 108 108 109 111 114 116 117 119 120 122 123 124 130 132 132 134 134 133 131 126 119 116 110 104 101 98 99 106 106 105 109 109 106 101 97 98 96 100 107 100 94 91 75 54 42 26 32 47 50 50 41 35 26 18 14 11 9 2 359 356 345 337 341 349 346 336 330 335 339 334 331 328 325 319 315 316 316 316 315
111 111 110 109 108 107 106 107 107 108 109 111 111 111 110 110 112 114 117 115 114 119 122 123 124 123 123 120 116 116 115 108 103 100 100 100 101 95 91 98 105 106 104 98 91 89 98 106 102 89 76 64 56 47 40 45 52 50 44 35 26 17 12 5 2 2 355 353 353 344 335 333 347 346 326 326 341 344 338 334 332 329 323 318 317 317 317 316
108 108 108 107 106 105 106 107 108 109 110 110 110 108 107 107 109 112 115 116 115 116 117 117 117 117 115 108 108 116 113 105 101 97 96 98 97 91 85 89 93 97 103 102 95 93 100 103 92 69 62 71 56 41 47 44 35 32 19 17 15 2 360 356 355 356 349 349 351 345 336 329 337 331 315 323 339 340 336 330 329 328 326 324 321 320 320 319
105 105 105 105 105 105 106 108 108 109 109 109 108 107 107 108 110 112 113 116 116 116 117 117 117 118 113 107 110 116 111 105 101 95 90 91 94 91 88 88 87 88 93 98 96 93 94 90 80 77 71 64 41 35 52 31 14 19 5 0 0 347 347 349 349 349 341 344 348 343 339 337 337 317 314 333 340 336 334 328 326 326 326 326 324 323 322 320
103 102 103 104 104 105 107 108 109 109 109 109 108 107 108 109 111 112 112 113 115 115 116 115 115 114 111 113 117 113 110 109 102 93 88 88 91 89 88 87 85 83 84 86 86 82 84 86 85 79 57 47 53 49 38 14 359 2 353 348 349 342 344 347 343 339 335 340 342 336 334 335 335 326 324 334 333 331 329 326 326 326 327 327 325 324 322 321
101 101 102 103 105 107 108 109 110 109 109 108 107 107 107 109 110 110 110 110 111 114 114 112 112 111 111 115 118 112 109 106 97 90 89 88 87 87 85 83 81 80 79 78 78 76 76 78 74 60 39 43 54 32 11 0 355 353 344 342 342 335 338 341 338 332 330 337 336 329 330 330 330 332 335 334 331 330 327 325 326 326 326 326 325 324 323 322
100 99 101 104 106 108 110 111 111 110 109 107 106 106 107 108 108 107 107 107 109 112 111 108 108 111 113 114 113 109 105 101 94 91 90 84 82 84 82 80 78 74 73 71 70 67 55 55 56 40 26 22 10 4 0 349 344 342 336 335 335 330 331 336 338 333 329 332 328 321 326 329 329 334 338 337 334 332 329 326 324 323 324 324 325 325 325 324
100 100 102 105 107 108 110 111 111 110 110 108 106 107 107 107 107 107 106 106 107 109 108 105 107 108 107 109 109 103 99 97 94 92 88 81 76 76 74 73 67 61 62 56 49 41 28 33 36 19 10 1 346 343 340 333 331 332 330 329 330 327 326 329 334 335 329 324 320 316 316 317 319 321 322 322 323 325 324 322 321 323 324 325 326 326 326 326
98 99 102 105 106 108 109 110 111 110 110 108 107 107 106 105 107 107 108 109 108 108 107 103 106 109 103 101 102 98 96 96 90 85 81 76 70 65 65 62 51 44 48 40 31 24 19 21 14 3 357 348 342 333 328 330 331 328 324 324 327 323 319 322 327 331 328 320 316 314 312 311 311 311 311 312 314 317 317 318 320 321 322 324 325 325 325 326
96 97 101 105 106 107 109 110 109 110 109 108 107 107 106 104 104 102 101 104 106 106 106 98 99 107 103 98 96 92 90 89 84 77 69 65 62 60 55 47 40 40 36 24 21 17 11 11 5 356 347 341 340 334 330 333 333 331 326 323 322 320 317 318 323 328 325 319 313 309 309 309 309 310 311 312 313 315 314 315 317 318 320 322 323 324 324 324
97 98 101 105 107 107 108 109 109 109 108 106 104 105 105 102 100 98 94 94 97 99 101 97 95 98 99 96 92 86 84 82 78 68 57 52 54 53 45 38 40 42 30 10 9 8 0 4 2 348 339 335 333 331 331 331 330 329 327 322 318 316 317 319 323 326 323 317 314 312 311 309 308 309 309 309 311 312 311 311 313 315 318 321 322 322 322 322
98 100 102 104 107 109 109 110 110 110 107 103 101 102 103 101 101 102 98 95 96 96 95 94 92 91 91 90 84 82 83 78 70 59 49 47 48 45 35 31 34 31 19 359 354 354 351 359 357 344 336 335 335 331 327 326 327 327 324 321 319 316 316 321 323 323 321 316 316 319 315 309 307 307 306 306 306 306 306 307 310 313 317 319 320 320 320 322
99 102 104 105 106 109 110 111 112 110 104 99 98 101 102 101 102 102 100 97 94 92 91 90 87 85 86 85 78 77 79 70 57 48 41 38 39 37 30 28 28 19 5 354 348 347 350 354 351 345 342 343 341 333 324 324 325 324 324 322 321 321 319 320 324 323 319 315 316 321 319 311 308 307 305 303 303 304 305 304 307 311 315 316 318 320 321 321
101 104 106 107 107 108 110 111 112 108 101 98 98 100 101 100 100 97 96 97 92 87 84 83 81 76 74 74 66 63 68 61 43 34 28 27 35 33 26 23 18 6 356 354 347 342 344 346 346 342 340 340 336 330 324 323 322 320 322 321 320 325 323 319 324 322 315 314 316 318 317 314 312 310 308 308 309 310 309 305 304 306 309 312 316 319 320 320
105 107 109 109 109 110 111 111 110 106 101 98 98 100 100 98 97 93 91 92 88 83 78 76 74 67 63 61 53 53 60 54 35 23 18 20 26 19 16 12 4 359 352 347 346 344 342 340 340 335 332 330 325 323 320 318 320 318 315 317 318 322 320 316 321 321 313 313 316 316 316 316 319 318 316 319 319 317 316 312 307 305 306 310 314 317 318 318
108 111 113 114 114 114 113 111 111 109 105 100 99 102 101 95 91 88 87 87 82 76 72 72 67 58 52 45 40 45 51 44 29 16 11 14 11 2 6 1 350 349 342 338 341 340 339 336 331 328 326 322 318 319 318 315 318 318 313 313 315 318 317 315 319 320 315 314 317 319 319 320 323 319 316 321 322 319 320 317 310 307 307 309 312 314 316 317
110 114 116 117 119 119 116 112 111 111 109 103 103 107 104 91 81 78 82 84 74 63 58 60 57 48 40 32 28 32 33 27 19 10 6 6 0 352 354 349 345 344 336 336 337 331 333 332 324 323 321 316 314 316 316 314 316 317 316 316 316 317 315 315 317 317 315 315 316 317 315 315 319 318 317 322 322 319 318 315 311 309 308 309 311 314 316 317
112 116 119 120 122 121 117 112 112 114 111 106 107 113 108 87 70 66 78 82 66 55 50 47 47 40 33 26 21 23 17 6 5 6 3 359 354 346 342 341 340 340 335 332 331 328 329 326 321 320 317 313 313 315 314 313 314 316 317 317 316 314 312 314 315 312 313 315 314 313 311 310 314 318 322 324 321 318 317 315 313 310 308 309 311 314 315 316
111 116 120 121 122 121 115 110 113 114 107 106 112 115 109 81 59 59 79 81 57 50 47 39 40 33 24 22 22 25 14 358 357 358 354 352 350 344 339 338 335 336 333 325 326 329 324 319 316 315 314 313 315 318 315 311 313 316 316 315 314 313 312 312 311 310 312 314 313 313 313 311 311 315 321 323 321 319 318 318 317 314 312 313 313 314 315 316
109 114 119 121 121 118 112 106 108 108 101 104 109 107 98 68 55 64 78 74 51 48 43 29 29 20 12 12 15 16 6 358 356 348 345 346 345 342 339 337 336 336 332 324 324 326 322 320 318 313 312 314 318 320 316 313 314 316 315 314 312 311 311 311 309 309 311 310 310 313 315 313 313 315 319 322 321 319 318 318 317 316 316 315 316 316 316 316
105 110 116 119 119 116 110 101 100 102 100 102 101 95 81 57 53 67 67 58 44 38 28 21 17 6 3 4 4 3 357 352 347 341 342 343 341 343 340 333 331 331 328 324 322 321 321 321 317 315 314 315 317 318 317 317 317 315 313 311 309 308 309 308 308 309 308 307 311 315 315 315 314 316 318 320 321 320 318 317 316 316 317 316 317 318 318 317
101 106 111 114 114 112 106 98 97 99 98 98 93 80 69 51 49 61 57 46 36 24 16 16 11 3 4 2 354 352 348 345 344 342 342 339 337 340 336 330 328 326 324 324 322 320 320 318 316 316 315 314 314 313 314 316 315 314 313 312 310 308 307 306 305 307 306 308 314 314 314 312 308 311 317 318 317 316 313 313 314 316 316 316 318 319 319 318
97 99 102 103 105 104 98 93 95 96 94 93 83 67 58 47 43 50 41 21 18 13 10 8 1 0 358 352 349 346 340 341 343 342 338 334 335 336 333 330 329 326 325 326 323 320 319 319 319 318 316 315 312 311 311 312 311 312 312 312 310 310 310 307 306 306 305 308 312 312 313 310 302 306 313 314 312 310 308 309 311 313 314 315 318 320 321 319
94 94 94 93 96 96 91 92 92 91 89 83 72 54 47 46 40 37 21 10 11 6 2 355 349 349 344 342 346 342 335 336 339 337 332 329 330 331 330 328 327 326 326 325 324 323 322 323 321 317 316 317 313 311 311 311 310 311 312 313 311 312 311 307 307 307 305 308 310 309 312 310 307 311 313 310 310 310 309 308 308 311 313 315 318 320 320 319
91 91 92 90 90 89 88 90 87 84 82 72 57 40 40 42 32 25 14 8 6 358 353 348 342 342 342 342 342 337 333 335 335 331 328 327 327 328 328 327 328 326 324 324 324 324 322 321 321 319 317 317 314 313 313 312 311 310 312 312 309 308 306 305 308 307 307 310 308 308 310 308 314 319 316 311 311 311 311 309 310 313 315 317 319 319 318 318
87 88 90 87 84 81 79 80 75 72 71 58 43 34 36 32 15 12 8 358 355 349 345 344 341 338 340 341 338 336 333 333 333 329 328 329 327 328 328 327 329 327 325 324 324 322 318 318 322 321 317 316 314 314 313 312 311 310 310 309 307 306 303 303 305 305 307 308 306 305 305 306 313 317 315 316 315 313 313 312 311 315 317 319 319 319 319 318
80 80 78 73 71 66 61 61 56 56 56 43 34 29 26 19 5 3 1 352 349 345 338 338 339 338 337 335 336 337 332 329 330 329 329 329 327 328 327 326 328 328 327 327 325 322 317 317 322 321 318 318 316 314 313 312 311 309 308 308 307 306 303 301 303 304 304 303 304 306 304 307 314 316 316 320 318 316 317 314 312 315 319 319 318 318 318 318
70 70 65 57 51 46 41 40 38 41 37 27 28 24 14 9 3 358 354 348 343 340 336 335 338 337 335 333 335 335 331 329 330 329 330 329 327 328 328 327 328 327 327 325 324 323 317 315 321 321 316 318 316 312 312 311 310 307 307 309 308 304 303 302 303 304 302 300 303 305 304 307 312 315 317 319 317 317 317 316 315 317 319 318 317 317 317 317
60 60 56 42 33 30 29 31 29 29 28 20 21 19 6 1 358 352 348 345 340 337 338 340 340 338 336 336 336 333 332 333 333 331 331 330 328 327 327 326 326 324 323 321 321 322 316 313 318 318 314 316 316 311 310 311 309 307 307 309 307 303 302 302 302 304 303 301 302 303 305 306 306 308 312 314 315 316 316 315 315 316 318 317 316 316 317 318
50 48 41 26 23 28 25 23 20 18 20 13 8 9 2 358 356 349 346 344 339 338 343 344 341 339 337 336 334 333 335 335 332 331 331 329 327 325 323 322 322 321 320 319 319 320 317 313 313 314 314 315 315 310 309 310 310 308 307 308 307 303 301 300 301 302 302 300 301 304 307 306 306 307 310 312 315 316 315 315 315 315 316 315 315 316 317 318
42 40 31 17 20 29 24 26 25 17 15 9 4 5 359 354 351 347 346 344 341 341 342 339 337 338 336 334 331 331 333 332 328 328 328 325 323 323 322 321 321 321 319 319 318 317 315 311 309 312 314 313 313 311 309 308 308 306 305 305 305 303 301 301 299 299 299 299 301 303 303 304 308 311 310 313 315 315 315 315 314 314 315 315 316 316 317 318
41 37 24 14 18 23 24 30 26 15 12 9 6 5 358 352 349 347 345 343 341 341 339 336 336 335 332 332 331 328 329 328 325 325 324 323 323 322 323 322 321 321 319 317 317 316 314 310 308 311 313 312 313 312 310 309 309 308 306 305 305 303 302 300 299 299 299 297 299 301 300 303 310 313 312 314 315 315 316 315 314 314 315 315 316 316 317 317
43 33 15 13 20 27 32 27 12 4 8 6 2 360 355 350 347 346 344 341 338 338 337 336 335 333 330 330 328 326 326 325 325 325 323 322 322 321 321 321 320 319 317 317 317 316 314 311 308 308 309 311 314 313 310 309 309 309 308 308 308 305 301 299 300 302 301 298 300 301 298 302 311 315 313 313 313 313 315 314 313 314 314 315 315 315 316 316
38 30 16 13 19 26 28 17 358 359 5 0 356 355 352 347 345 343 340 338 335 334 334 333 331 331 330 328 327 327 327 325 325 327 325 323 324 323 322 322 320 319 318 317 317 317 315 312 310 309 309 311 314 312 309 308 309 309 309 309 307 305 304 300 299 301 301 299 298 299 297 300 310 315 312 311 312 312 313 314 313 313 314 314 314 313 315 315
36 30 20 13 11 8 7 2 354 355 354 350 351 351 347 344 343 339 336 336 336 333 333 333 332 333 333 332 331 332 333 332 330 331 331 328 329 330 328 326 325 324 323 321 321 320 317 316 315 314 313 315 314 313 310 309 310 310 310 311 309 307 306 302 299 300 300 297 297 297 297 300 308 314 312 312 312 312 314 315 314 314 314 314 314 314 314 315
19 16 13 12 16 14 0 353 353 351 345 344 346 344 340 341 342 339 336 339 340 338 338 339 338 338 338 338 337 337 338 337 336 336 336 334 333 335 334 332 331 330 329 327 325 322 320 320 318 316 317 317 316 315 314 313 313 312 312 312 309 306 305 303 302 300 298 299 299 297 297 301 308 313 312 312 314 314 315 316 316 316 315 314 314 314 315 316
354 354 354 360 11 16 6 355 353 349 341 339 341 342 342 343 343 342 342 344 346 345 344 343 341 341 342 341 341 341 341 341 340 340 338 336 337 338 337 336 334 333 332 331 328 326 324 322 319 315 313 313 312 313 314 315 314 312 313 313 309 307 307 306 303 298 298 301 300 298 300 304 309 313 313 313 315 315 316 317 317 317 316 315 314 314 315 315
348 344 339 341 352 0 1 358 355 350 343 341 345 348 349 348 348 348 348 348 348 347 346 345 345 344 343 343 343 342 341 341 342 340 338 337 338 339 338 338 336 334 333 332 330 329 327 323 322 319 314 312 312 311 313 314 311 310 313 314 313 313 311 306 301 299 302 303 301 304 308 308 311 314 314 313 315 315 317 318 317 316 315 315 314 314 315 315
350 347 344 346 349 348 353 358 0 2 359 354 353 353 353 353 352 351 349 348 348 347 346 347 348 347 344 342 342 341 340 340 339 339 339 339 339 339 340 340 339 337 335 334 332 332 328 325 326 325 318 315 312 310 311 312 310 312 313 312 313 315 310 304 302 303 303 299 299 306 309 309 312 314 313 313 315 316 317 317 316 315 314 315 315 316 316 317
15 14 5 7 10 3 0 1 3 7 6 0 359 358 355 356 356 351 347 347 347 347 347 346 346 345 342 340 340 340 340 339 338 337 339 340 339 339 340 340 340 339 337 336 335 334 331 329 329 327 322 319 316 313 314 314 313 314 313 310 313 313 306 301 303 306 304 300 301 305 306 308 312 312 311 313 314 315 316 316 315 316 316 316 316 317 318 320
35 34 28 29 27 17 11 6 4 5 3 1 1 359 355 354 354 351 348 348 347 346 346 345 343 342 341 340 339 338 339 338 336 335 339 340 339 339 340 340 340 339 338 338 337 336 334 333 334 330 325 323 323 321 319 316 315 315 315 316 318 314 307 306 308 310 309 306 306 306 307 309 311 312 312 313 314 315 317 318 318 318 317 317 318 319 321 322
44 41 39 39 25 11 10 9 6 5 3 2 1 357 354 354 351 348 347 347 346 344 343 342 340 340 340 339 337 336 337 337 334 334 337 338 338 339 340 340 341 339 339 339 338 338 337 336 336 334 328 326 328 327 323 320 317 316 318 321 320 314 311 314 316 315 313 311 311 311 311 313 314 315 314 314 315 317 318 319 319 318 318 319 320 321 321 322
43 38 36 37 25 11 10 9 7 8 5 1 359 356 353 353 350 347 346 346 344 342 341 340 338 338 339 337 336 337 337 336 334 335 336 336 336 337 338 338 338 337 339 341 340 340 340 337 338 337 331 328 331 331 327 325 324 325 325 324 320 316 314 316 316 315 313 312 314 314 314 315 316 316 316 316 317 318 319 320 319 318 318 319 320 320 321 322